Weather History for Iwojima, Japan

Change the Weather History Date:

Friday, January 18, 2013

  Actual Average Record
Temperature  
Mean Temperature 66 °F -  
Max Temperature 69 °F 69 °F 77 °F (1998)
Min Temperature 62 °F 64 °F 60 °F (2011)
Growing Degree Days 16 (Base 50)    
Moisture  
Dew Point 51 °F    
Average Humidity 58    
Maximum Humidity 68    
Minimum Humidity 49    
Precipitation  
Precipitation 0.00 in - - ()
Sea Level Pressure  
Sea Level Pressure 29.97 in    
Wind  
Wind Speed 15 mph ()    
Max Wind Speed 28 mph    
Max Gust Speed 39 mph    
Visibility 6.2 miles    
Events      
Averages and records for this station are not official NWS values.
T = Trace of Precipitation, MM = Missing Value Source: Averaged Metar Reports

Daily Weather History Graph

Daily Weather History Graph

Search for Another Location

Airport:

Trip Planner

Search our weather history database for the weather conditions in past years. The results will help you decide how hot, cold, wet, or windy it might be!

Date:

Astronomy

Jan. 18, 2013 Rise Set
Actual Time 7:20 AM ChST 6:09 PM ChST
Civil Twilight 6:56 AM ChST 6:33 PM ChST
Nautical Twilight 6:28 AM ChST 7:01 PM ChST
Astronomical Twilight 6:01 AM ChST 7:29 PM ChST
Moon 11:26 AM ChST (1/18) No Moon Set
Length of Visible Light 11h 37m
Length of Day
10h 48m
Waxing Crescent, 41% of the Moon is Illuminated
Jan 18
Waxing Crescent
Jan 19
First Quarter
Jan 27
Full
Feb 3
Last Quarter
Feb 10
New

Hourly Weather History & Observations

Time (ChST) Temp. Dew Point Humidity Pressure Visibility Wind Dir Wind Speed Gust Speed Precip Events Conditions
1:00 AM 68.0 °F 51.8 °F 56% 29.92 in 6.2 mi West 11.5 mph - N/A   Partly Cloudy
4:00 AM 68.0 °F 57.2 °F 68% 29.89 in 6.2 mi NW 16.1 mph - N/A   Mostly Cloudy
6:00 AM 66.2 °F 53.6 °F 64% 29.92 in 6.2 mi NW 15.0 mph - N/A   Scattered Clouds
6:37 AM 66.2 °F 51.8 °F 60% 29.92 in 6.2 mi NW 17.3 mph 28.8 mph N/A   Scattered Clouds
7:00 AM 66.2 °F 51.8 °F 60% 29.92 in 6.2 mi NW 16.1 mph - N/A   Partly Cloudy
8:00 AM 68.0 °F 53.6 °F 60% 29.95 in 6.2 mi NW 17.3 mph - N/A   Scattered Clouds
9:00 AM 68.0 °F 53.6 °F 60% 29.95 in 6.2 mi NW 15.0 mph - N/A   Scattered Clouds
9:45 AM 69.8 °F 53.6 °F 56% 29.98 in 6.2 mi NW 16.1 mph - N/A   Mostly Cloudy
10:00 AM 68.0 °F 55.4 °F 64% 29.98 in 6.2 mi NW 15.0 mph - N/A   Mostly Cloudy
11:00 AM 69.8 °F 53.6 °F 56% 29.98 in 6.2 mi NW 16.1 mph 27.6 mph N/A   Mostly Cloudy
12:00 PM 68.0 °F 53.6 °F 60% 29.98 in 6.2 mi NNW 21.9 mph 33.4 mph N/A   Mostly Cloudy
1:00 PM 68.0 °F 55.4 °F 64% 29.95 in 6.2 mi North 21.9 mph 33.4 mph N/A   Mostly Cloudy
2:00 PM 69.8 °F 51.8 °F 53% 29.92 in 6.2 mi NNW 23.0 mph 34.5 mph N/A   Mostly Cloudy
3:00 PM 68.0 °F 51.8 °F 56% 29.95 in 6.2 mi NNW 27.6 mph 39.1 mph N/A   Mostly Cloudy
4:00 PM 66.2 °F 50.0 °F 56% 29.95 in 6.2 mi North 24.2 mph 35.7 mph N/A   Mostly Cloudy
5:00 PM 66.2 °F 48.2 °F 52% 29.98 in 6.2 mi NNW 23.0 mph 36.8 mph N/A   Mostly Cloudy
5:15 PM 66.2 °F 46.4 °F 49% 29.98 in 6.2 mi NNW 25.3 mph 36.8 mph N/A   Scattered Clouds
6:00 PM 64.4 °F 48.2 °F 56% 30.01 in 6.2 mi NNW 20.7 mph 32.2 mph N/A   Scattered Clouds
6:15 PM 64.4 °F 46.4 °F 52% 30.01 in 6.2 mi NNW 20.7 mph 32.2 mph N/A   Mostly Cloudy
7:00 PM 62.6 °F 44.6 °F 52% 30.04 in 6.2 mi North 19.6 mph 32.2 mph N/A   Mostly Cloudy
10:00 PM 62.6 °F 46.4 °F 55% 30.09 in 6.2 mi North 16.1 mph 27.6 mph N/A   Scattered Clouds